FW3754 Weather Reports


Display with metric or nautical units.
time (UTC)temp
F
wind
direction
speed
MPH
gust
MPH
rain 1hr
in
rain 24hr
in
rain mn
in
humidity
%
barometer
mb
20260507193042 99 179 4.0 0.0 0.00 0.00 0.00 39 1013.2
20260507191537 96 258 3.0 0.0 0.00 0.00 0.00 45 1013.2
20260507190034 97 178 2.0 0.0 0.00 0.00 0.00 44 1013.6
20260507184536 93 36 4.0 0.0 0.00 0.00 0.00 43 1013.6
20260507183038 94 15 2.0 0.0 0.00 0.00 0.00 41 1014.0
20260507181526 92 22 3.0 0.0 0.00 0.00 0.00 42 1014.2
20260507180030 92 10 4.0 0.0 0.00 0.00 0.00 52 1014.3
20260507174524 91 30 3.0 0.0 0.00 0.00 0.00 51 1014.6
20260507173034 92 355 1.0 0.0 0.00 0.00 0.00 53 1014.7
20260507171538 91 316 2.0 0.0 0.00 0.00 0.00 54 1014.9
20260507170022 91 302 2.0 0.0 0.00 0.00 0.00 54 1015.0
20260507164529 91 32 1.0 0.0 0.00 0.00 0.00 54 1015.1
20260507163021 92 113 2.0 0.0 0.00 0.00 0.00 51 1015.3
20260507161522 89 259 3.0 0.0 0.00 0.00 0.00 57 1015.5
20260507160017 86 9 3.0 0.0 0.00 0.00 0.00 58 1015.7
20260507154514 86 360 4.0 0.0 0.00 0.00 0.00 54 1015.8
20260507153013 86 5 1.0 0.0 0.00 0.00 0.00 61 1015.9
20260507151509 85 280 3.0 0.0 0.00 0.00 0.00 63 1016.1
20260507150008 83 314 3.0 0.0 0.00 0.00 0.00 68 1016.2
20260507144506 83 17 2.0 0.0 0.00 0.00 0.00 68 1016.1
20260507143002 82 348 2.0 0.0 0.00 0.00 0.00 68 1016.0
20260507141501 82 348 2.0 0.0 0.00 0.00 0.00 72 1016.1
20260507140100 82 257 2.0 0.0 0.00 0.00 0.00 72 1016.2
20260507134603 81 297 1.0 0.0 0.00 0.00 0.00 76 1016.2
20260507133056 80 253 3.0 0.0 0.00 0.00 0.00 77 1016.2
20260507131551 79 299 2.0 0.0 0.00 0.00 0.00 79 1016.2
20260507130049 78 309 1.0 0.0 0.00 0.00 0.00 81 1016.2
20260507124547 78 32 2.0 0.0 0.00 0.00 0.00 83 1016.2
20260507123045 77 35 1.0 0.0 0.00 0.00 0.00 85 1016.2
20260507121542 75 128 0.0 0.0 0.00 0.00 0.00 88 1016.0
20260507120044 74 129 1.0 0.0 0.00 0.00 0.00 91 1015.8
20260507114539 72 337 0.0 0.0 0.00 0.00 0.00 93 1015.5
20260507113042 71 105 0.0 0.0 0.00 0.00 0.00 93 1015.4
20260507111536 70 105 0.0 0.0 0.00 0.00 0.00 93 1015.2
20260507110037 70 105 0.0 0.0 0.00 0.00 0.00 92 1015.0
20260507104535 70 116 0.0 0.0 0.00 0.00 0.00 92 1014.8
20260507103035 70 116 0.0 0.0 0.00 0.00 0.00 92 1014.4
20260507101534 70 116 0.0 0.0 0.00 0.00 0.00 92 1014.2
20260507100037 70 116 0.0 0.0 0.00 0.00 0.00 91 1014.2
20260507094534 70 116 0.0 0.0 0.00 0.00 0.00 92 1014.1
20260507093036 70 116 0.0 0.0 0.00 0.00 0.00 91 1014.0
20260507091531 70 116 0.0 0.0 0.00 0.00 0.00 91 1014.1
20260507090031 70 116 0.0 0.0 0.00 0.00 0.00 91 1014.0
20260507084532 70 116 0.0 0.0 0.00 0.00 0.00 91 1014.0
20260507083029 70 116 0.0 0.0 0.00 0.00 0.00 90 1014.0
20260507081533 70 116 0.0 0.0 0.00 0.00 0.00 89 1014.0
20260507080025 71 116 0.0 0.0 0.00 0.00 0.00 89 1013.9
20260507074530 71 116 0.0 0.0 0.00 0.00 0.00 88 1014.1
20260507073023 71 116 0.0 0.0 0.00 0.00 0.00 88 1014.3
20260507071528 71 116 0.0 0.0 0.00 0.00 0.00 88 1014.3
20260507070020 72 116 0.0 0.0 0.00 0.00 0.00 87 1014.5
20260507064519 72 198 0.0 0.0 0.00 0.00 0.00 88 1014.5
20260507063018 72 198 0.0 0.0 0.00 0.00 0.00 85 1014.6
20260507061518 72 198 0.0 0.0 0.00 0.00 0.00 84 1014.7
20260507060012 73 198 0.0 0.0 0.00 0.00 0.00 84 1014.9
20260507054510 73 198 0.0 0.0 0.00 0.00 0.00 83 1015.2
20260507053010 73 198 1.0 0.0 0.00 0.00 0.00 82 1015.2
20260507051506 74 194 0.0 0.0 0.00 0.00 0.00 81 1015.4
20260507050003 74 197 1.0 0.0 0.00 0.00 0.00 80 1015.5
20260507044507 74 192 0.0 0.0 0.00 0.00 0.00 80 1015.6
20260507043002 74 196 0.0 0.0 0.00 0.00 0.00 79 1015.6
20260507041610 75 196 0.0 0.0 0.00 0.00 0.00 78 1015.8
20260507040106 75 196 1.0 0.0 0.00 0.00 0.00 77 1015.7
20260507034618 75 203 1.0 0.0 0.00 0.00 0.00 76 1015.7
20260507033106 75 198 1.0 0.0 0.00 0.00 0.00 75 1015.8
20260507031554 76 198 0.0 0.0 0.00 0.00 0.00 75 1016.1
20260507030054 76 196 1.0 0.0 0.00 0.00 0.00 74 1016.0
20260507024604 76 188 1.0 0.0 0.00 0.00 0.00 73 1015.9
20260507023053 77 200 1.0 0.0 0.00 0.00 0.00 73 1015.8
20260507021601 77 188 1.0 0.0 0.00 0.00 0.00 72 1016.0
20260507020051 78 209 2.0 0.0 0.00 0.00 0.00 71 1015.8
20260507014553 78 201 3.0 0.0 0.00 0.00 0.00 70 1015.8
20260507013108 78 190 2.0 0.0 0.00 0.00 0.00 70 1015.9
20260507011550 79 193 2.0 0.0 0.00 0.00 0.00 69 1015.8
20260507010054 79 198 2.0 0.0 0.00 0.00 0.00 68 1015.8
20260507004550 80 175 3.0 0.0 0.00 0.00 0.00 67 1015.8
20260507003049 81 205 3.0 0.0 0.00 0.00 0.00 65 1015.7
20260507001607 81 189 5.0 0.0 0.00 0.00 0.00 64 1015.6
20260507000048 82 191 5.0 0.0 0.00 0.00 0.00 60 1015.7
20260506234556 84 210 5.0 0.0 0.00 0.00 0.00 56 1015.5
20260506233047 85 188 5.0 0.0 0.00 0.00 0.00 52 1015.3
20260506231549 85 184 6.0 0.0 0.00 0.00 0.00 51 1015.3
20260506230047 87 168 5.0 0.0 0.00 0.00 0.00 54 1015.3
20260506224603 88 191 5.0 0.0 0.00 0.00 0.00 51 1015.3
20260506223057 87 220 4.0 0.0 0.00 0.00 0.00 54 1015.2
20260506221544 89 193 6.0 0.0 0.00 0.00 0.00 56 1014.9
20260506214544 90 218 6.0 0.0 0.00 0.00 0.00 53 1014.7
20260506213043 91 194 5.0 0.0 0.00 0.00 0.00 53 1014.7
20260506211551 90 200 4.0 0.0 0.00 0.00 0.00 51 1014.6
20260506210043 93 186 5.0 0.0 0.00 0.00 0.00 50 1014.6
20260506204543 96 209 5.0 0.0 0.00 0.00 0.00 45 1014.6
20260506203042 94 247 5.0 0.0 0.00 0.00 0.00 48 1014.7
20260506201542 95 215 6.0 0.0 0.00 0.00 0.00 46 1014.9
20260506200042 96 229 5.0 0.0 0.00 0.00 0.00 44 1014.9
20260506194545 96 192 6.0 0.0 0.00 0.00 0.00 43 1015.0